Main page
METAR-TAF:

METAR-TAF

Airports :

Bétera-Valencia

Valencia, Spain

latitude: 39-37-26N, longitude: 0-28-26W, elevation: 127 m

Current weather observation

The report was made 16 minutes ago, at 10:00 UTC
Calm wind
Temperature 14°C
Humidity 82%
Pressure 1016 hPa
Visibility 10 km or more
Few clouds at a height of 4200 ft
Broken clouds at a height of 5800 ft

METAR: LEBT 061000Z AUTO 00000KT 9999 FEW042 BKN058 14/11 Q1016

Time: 11:16 (10:16 UTC)


TAF: missing

Weather observations and forecasts of more than 4000 airports (METAR and TAF reports).

The available stations are represented by yellow and red dots on the map.

Hover mouse over dot to see the name of the station.

Then click to see weather observations and forecasts.

To change the map : click on the green buttons with a black cross to zoom in, on the green button with a dash to zoom out, or on the green arrows for adjacent maps.


METAR-TAF: